Regional Weather Roundup
Issued by NWS Grand Forks, ND

Current Version | Previous Version | Text Only | Print | Product List | Glossary On
Versions: 1 2 3 4 5 6 7 8 9 10 11 12 13 14 15 16 17 18 19 20 21 22 23 24 25 26 27 28 29 30 31 32 33 34 35 36 37 38 39 40 41 42 43 44 45 46 47 48 49 50
000
ASUS43 KFGF 040631
RWRFGF
PRAIRIE TO PINES  WEATHER ROUNDUP
NATIONAL WEATHER SERVICE EASTERN NORTH DAKOTA/GRAND FORKS ND
100 AM CDT TUE OCT 04 2022

 **SATELLITE DATA USED TO AUGMENT SKY COVER AT AUTOMATED STATIONS**
 *****  WEATHER ACROSS EASTERN NORTH DAKOTA  *****

CITY           SKY/WX    TMP DP  RH WIND       PRES   REMARKS
GRAND FORKS    FAIR      61  53  75 S6        30.04F
6HR MIN TEMP:  60; 6HR MAX TEMP:  65;

GRAND FRKS AFB CLOUDY    60  53  77 S7        30.02F
DEVILS LAKE    FOG       54  52  94 CALM      30.04F VSB 3/4
6HR MIN TEMP:  52; 6HR MAX TEMP:  66;

FARGO          CLOUDY    63  49  60 SE6       30.07F
WAHPETON ARPT  CLOUDY    63  50  63 SE6       30.07F
$$

 ***** WEATHER ACROSS CENTRAL AND WESTERN NORTH DAKOTA  *****

CITY           SKY/WX    TMP DP  RH WIND       PRES   REMARKS
BISMARCK       MOCLDY    56  52  86 NW6       30.12S
6HR MIN TEMP:  55; 6HR MAX TEMP:  66;

MINOT          FAIR      54  50  86 SW7       30.08S
6HR MIN TEMP:  54; 6HR MAX TEMP:  66;

JAMESTOWN      NOT AVBL
MINOT AFB      FAIR      50  49  95 W7        30.06S
GARRISON         N/A     54  51  90 W6        30.11R
WILLISTON      NOT AVBL
DICKINSON      FAIR      48  46  93 SW3       30.13S
6HR MIN TEMP:  47; 6HR MAX TEMP:  58;

HETTINGER      FOG       44  43  96 W3        30.15F VSB 1/2
6HR MIN TEMP:  43; 6HR MAX TEMP:  62;

$$

 *****  OTHER AIRPORT OBSERVATIONS IN OUR AREA  *****

CITY           SKY/WX    TMP DP  RH WIND       PRES   REMARKS
WALHALLA       FAIR      54  54 100 W6        30.04F
GRAFTON AIRPOR FAIR      59  55  88 S5        30.03F
VALLEY CITY AR FAIR      57  57 100 S8        30.06F
CANDO          FAIR      50  50 100 CALM      30.06S
CAVALIER APRT  FAIR      52  52 100 CALM      30.03F FOG
GWINNER        CLOUDY    57  57 100 S6        30.09S
SHEYENNE NWR     N/A     60  54  80 S3        29.95S
ROLLA          FAIR      50  50 100 N7        30.07F
 ***** THE ABOVE OBSERVATIONS ARE NON NWS ARE NOT QUALITY
       CONTROLLED AND MAY MIS-REPORT RAIN FOR SNOW...
$$

  *****  WEATHER ACROSS NORTHERN MINNESOTA  *****

CITY           SKY/WX    TMP DP  RH WIND       PRES   REMARKS
FLAG ISLAND    NOT AVBL
WARROAD        FAIR      55  52  88 CALM      30.07F
ROSEAU           N/A     61  55  82 S3        30.06F
HALLOCK        CLOUDY    59  55  88 S3        30.04S
THF RVR FALLS  CLOUDY    62  50  64 S3        30.08F
6HR MIN TEMP:  60; 6HR MAX TEMP:  66;

BAUDETTE       CLOUDY    61  52  72 S5        30.09F
6HR MIN TEMP:  60; 6HR MAX TEMP:  67;

WASKISH        CLOUDY    64  54  68 CALM      30.10S
CROOKSTON      MOCLDY    66  48  52 S9        30.06S
STEPHEN NDAWN    N/A     59  52  77 VRB5        N/A
GREENBUSH NDAW   N/A     57  54  88 VRB5        N/A
$$
  *****  WEATHER ACROSS CENTRAL AND WEST MINNESOTA  *****

CITY           SKY/WX    TMP DP  RH WIND       PRES   REMARKS
FOSSTON        MOCLDY    61  48  63 S6        30.10F
BEMIDJI        MOCLDY    59  53  78 S9        30.11F
6HR MIN TEMP:  57; 6HR MAX TEMP:  63;

PARK RAPIDS    CLOUDY    62  50  64 CALM      30.12S
6HR MIN TEMP:  60; 6HR MAX TEMP:  67; 6HR PCP: TRACE;

ELBOW LAKE     LGT RAIN  60  49  67 CALM      30.12S
6HR MIN TEMP:  60; 6HR MAX TEMP:  67;

WADENA         MOCLDY    63  46  55 S5        30.12F
DETROIT LAKES  CLOUDY    61  52  72 CALM      30.10F
MOORHEAD       CLOUDY    64  52  63 S5        30.08F
FERGUS FALLS   MOCLDY    63  50  63 SE6       30.10S
MORRIS MN      DRIZZLE   61  45  55 S5        30.13S
STAPLES        FAIR      61  50  67 S5        30.14S
$$
  *****  WEATHER ELSEWHERE ACROSS MINNESOTA  *****

CITY           SKY/WX    TMP DP  RH WIND       PRES   REMARKS
DULUTH         CLOUDY    60  51  72 SW8       30.17S
6HR MIN TEMP:  60; 6HR MAX TEMP:  65; 6HR PCP: TRACE;

INTRNTL FALLS  LGT RAIN  59  53  80 VRB5      30.11S
6HR MIN TEMP:  59; 6HR MAX TEMP:  64; 6HR PCP: TRACE;

ELY            FAIR      59  50  72 SW3       30.16S
CLOQUET        FAIR      57  48  72 SW5       30.16S
WHEATON          N/A     59  52  77 SE12      30.11F
BRAINERD       FAIR      61  48  62 S8        30.15S
6HR MIN TEMP:  61; 6HR MAX TEMP:  66;

HIBBING        FAIR      52  52 100 CALM      30.17R
6HR MIN TEMP:  51; 6HR MAX TEMP:  65;

ALEXANDRIA     FAIR      62  46  55 S5        30.15F
6HR MIN TEMP:  61; 6HR MAX TEMP:  69;

SAINT CLOUD    FAIR      57  50  77 SE5       30.16S
6HR MIN TEMP:  57; 6HR MAX TEMP:  68;

MINNEAPOLIS    MOCLDY    63  45  51 S9        30.18F
6HR MIN TEMP:  63; 6HR MAX TEMP:  71;

$$

  *****  WEATHER ACROSS SOUTH DAKOTA  *****

CITY           SKY/WX    TMP DP  RH WIND       PRES   REMARKS
SIOUX FALLS    FAIR      62  50  64 CALM      30.15F
6HR MIN TEMP:  62; 6HR MAX TEMP:  76;

BROOKINGS      LGT RAIN N/A N/A N/A W5        30.16R
WATERTOWN      CLOUDY    57  56  96 VRB3      30.13S
6HR MIN TEMP:  57; 6HR MAX TEMP:  66; 6HR PCP:  0.02;

HURON          CLOUDY    58  55  90 SE7       30.11F
6HR MIN TEMP:  58; 6HR MAX TEMP:  63; 6HR PCP:  0.07;

SISSETON         N/A     63  52  67 S7        30.09S
ABERDEEN       MOCLDY    60  54  80 S7        30.10S
6HR MIN TEMP:  58; 6HR MAX TEMP:  66;

MITCHELL       CLOUDY    59  55  87 SE6       30.13S
PIERRE         FAIR      57  54  89 SW5       30.08F
6HR MIN TEMP:  55; 6HR MAX TEMP:  64;

MOBRIDGE       CLOUDY    57  53  86 NE5       30.07S
RAPID CITY     LGT RAIN  53  49  86 N8        30.18R
6HR MIN TEMP:  52; 6HR MAX TEMP:  56; 6HR PCP:  0.10;

$$

  *****  SOME WEATHER IN NEARBY STATES *****

CITY           SKY/WX    TMP DP  RH WIND       PRES   REMARKS
GLASGOW MT     FAIR      54  51  90 CALM      30.13S
6HR MIN TEMP:  54; 6HR MAX TEMP:  64;

GREAT FALLS MT FAIR      50  46  86 SE3       30.17F
6HR MIN TEMP:  50; 6HR MAX TEMP:  67;

CHEYENNE WY    FAIR      47  42  83 W10       30.25S
6HR MIN TEMP:  47; 6HR MAX TEMP:  55;

SCOTTSBLUFF NE FAIR      50  46  86 SE3       30.17F
6HR MIN TEMP:  50; 6HR MAX TEMP:  60;

OMAHA NE       FAIR      60  47  61 SE6       30.17R
6HR MIN TEMP:  60; 6HR MAX TEMP:  75;

DES MOINES IA  FAIR      59  47  64 S7        30.21S
6HR MIN TEMP:  59; 6HR MAX TEMP:  71;

DAVENPORT IA   FAIR      44  39  82 E3        30.27S
6HR MIN TEMP:  44; 6HR MAX TEMP:  55;

CHICAGO IL     FAIR      49  43  80 CALM      30.27F
6HR MIN TEMP:  49; 6HR MAX TEMP:  58;

EAU CLAIRE WI  FAIR      50  47  89 CALM      30.22F
6HR MIN TEMP:  47; 6HR MAX TEMP:  62;

LA CROSSE WI   FAIR      56  49  77 SE7       30.24S
6HR MIN TEMP:  54; 6HR MAX TEMP:  64;

$$

  *****  SOME NATIONAL WEATHER *****

CITY           SKY/WX    TMP DP  RH WIND       PRES   REMARKS
LA GUARDIA NY  HVY RAIN  48  41  76 N10       30.08F
6HR MIN TEMP:  48; 6HR MAX TEMP:  52; 6HR PCP:  0.25;

RALEIGH NC     CLOUDY    52  44  74 N9        30.12R
6HR MIN TEMP:  51; 6HR MAX TEMP:  55;

ATLANTA GA     FAIR      63  54  72 SE7       30.12S
6HR MIN TEMP:  61; 6HR MAX TEMP:  72;

NEW ORLEANS LA FAIR      70  64  81 CALM      30.06S
6HR MIN TEMP:  70; 6HR MAX TEMP:  79;

OKLAHOMA CITY  FAIR      61  43  51 CALM      30.14S
6HR MIN TEMP:  59; 6HR MAX TEMP:  75;

ALBUQUERQUE NM LGT RAIN  58  55  90 NE15G22   30.25S
6HR MIN TEMP:  58; 6HR MAX TEMP:  69; 6HR PCP:  0.20;

SALT LAKE CITY FAIR      60  40  47 CALM      30.17S
6HR MIN TEMP:  60; 6HR MAX TEMP:  76;

LOS ANGELES CA FAIR      69  63  81 CALM      29.94S
6HR MIN TEMP:  68; 6HR MAX TEMP:  72;

BOISE ID       FAIR


USA.gov is the U.S. government's official web portal to all federal, state and local government web resources and services.